Location: Bad Salzschlirf
(50.3750°N, 9.3000°E)
Time: 04:21:26
(UTC+02:00)

ISS - Pass Details

Date: 09 July 2025
Orbit: 413 x 417 km, 51.6° (Epoch: 12 July)

Event Time Altitude Azimuth Distance (km) Brightness Sun altitude
Rises 00:23:22 0° 257° (WSW) 2,349 0.1 -15.9°
Reaches altitude 10° 00:25:28 10° 258° (WSW) 1,489 -0.9 -16.0°
Maximum altitude 00:28:48 84° 347° (NNW) 423 -3.8 -16.1°
Drops below altitude 10° 00:32:10 10° 76° (ENE) 1,494 -1.0 -16.2°
Sets 00:34:16 0° 77° (ENE) 2,359 0.1 -16.3°
